Regional Weather Roundup
Issued by NWS Kansas City/Pleasant Hill, MO

Home | Current Version | Previous Version | Graphics & Text | Print | Product List | Glossary Off
Versions: 1 2 3 4 5 6 7 8 9 10 11 12 13 14 15 16 17 18 19 20 21 22 23 24 25 26 27 28 29 30 31 32 33 34 35 36 37 38 39 40 41 42 43 44 45 46 47 48 49 50

000
ASUS43 KEAX 300810
RWREAX

WEATHER ROUNDUP FOR EASTERN KANSAS AND NORTHWEST MISSOURI
NATIONAL WEATHER SERVICE KANSAS CITY/PLEASANT HILL MO
300 AM CDT SAT JUL 30 2016

KSZ040-057-103>105-MOZ028-029-037-043-300900-
...KANSAS CITY METROPOLITAN AREA...

CITY           SKY/WX    TMP DP  RH WIND       PRES   REMARKS
K.C. INTL      CLEAR     65  60  84 NE5       30.01F
K.C. DOWNTOWN  CLEAR     69  63  81 N3        29.99F
LEES SUMMIT    CLEAR     67  63  87 N5        30.01S
OLATHE - IXD   CLEAR     67  63  87 NE3       30.01F
OLATHE - OJC   CLEAR     68  61  78 NE5       30.01S
LAWRENCE       PTCLDY    66  62  87 CALM      30.00F

$$

MOZ001>008-011>017-020>025-030>033-038>040-044>046-053-054-300900-
...NORTHERN AND CENTRAL MISSOURI...

CITY           SKY/WX    TMP DP  RH WIND       PRES   REMARKS
ST. JOSEPH     CLEAR     63  61  93 N5        30.01F
MOSBY          SUNNY     63  63 100 CALM      30.01S
WHITEMAN AFB   CLEAR     66  66  99 N5        29.98F
CLINTON        PTCLDY    66  66 100 CALM      29.98F FOG
SEDALIA        CLEAR     68  64  87 NW5       29.99F
WARSAW         NOT AVBL
CHILLICOTHE      N/A     64  62  93 CALM      30.01S
KIRKSVILLE     PTCLDY    64  62  93 NW6       29.99S

$$

MOZ041-047>049-056>058-063>065-088>090-097-300900-
...EASTERN AND SOUTHERN MISSOURI...

CITY           SKY/WX    TMP DP  RH WIND       PRES   REMARKS
ST. LOUIS INTL PTCLDY    73  67  81 NW3       29.95F
SPIRIT OF STL  CLEAR     69  68  96 CALM      29.94S
COLUMBIA       CLEAR     68  65  90 CALM      29.97F
JEFFERSON CITY CLEAR     68  66  93 CALM      29.96F
ROLLA          CLEAR     67  65  93 CALM      29.97S
OSAGE BEACH    PTCLDY    68  68 100 CALM      29.98F
SPRINGFIELD    CLEAR     71  67  87 CALM      29.99F
BRANSON        FOG       70  70 100 CALM      30.00F VSB<1/4
JOPLIN         CLEAR     71  69  93 SE3       29.99F
WEST PLAINS    FOG       70  68  93 CALM      30.01F VSB 1/4

$$

IAZ060-094-KSZ022-034>040-054-083-096-NEZ052-066-093-300900-
...KANSAS...SOUTHEAST NEBRASKA AND IOWA...

CITY           SKY/WX    TMP DP  RH WIND       PRES   REMARKS
TOPEKA         PTCLDY    67  65  93 CALM      30.01S
MANHATTAN      CLOUDY    68  65  90 CALM      30.01S
EMPORIA        CLOUDY    69  66  90 CALM      30.01F
CHANUTE        CLEAR     70  68  93 CALM      29.99S FOG
WICHITA        MOCLDY    73  69  87 S6        30.00F
OMAHA          PTCLDY    66  61  84 CALM      30.02F
LINCOLN        PTCLDY    68  62  81 CALM      30.04S
FALLS CITY     PTCLDY    63  62  97 CALM      30.01F
LAMONI         PTCLDY    63  62  97 CALM      30.01S
DES MOINES     PTCLDY    68  64  87 CALM      29.99S

$$




USA.gov is the U.S. government's official web portal to all federal, state and local government web resources and services.